Wind_Speed
24 23 21 20 19 15 11 6 1 2 5 8 10 13 15 16 16 14 14 13 11 10 9 9 8 8 9 9 10 10 11 11 11 11 11 11 12 13 13 14 14 14 14 13 13 12 12 13 13
27 25 24 24 22 19 15 8 3 3 6 10 12 13 14 14 14 13 12 12 11 10 9 8 8 7 7 7 8 9 9 9 9 9 9 10 11 11 12 12 13 13 13 12 12 12 12 13 13
29 28 28 27 26 23 18 11 5 0 6 11 13 13 12 11 10 10 10 9 8 8 8 8 7 6 6 6 6 7 7 7 7 7 7 8 9 9 10 11 11 12 12 12 12 12 12 13 13
31 32 31 30 28 25 20 13 6 3 5 12 15 15 13 11 9 8 7 6 6 6 6 6 6 6 5 5 5 5 5 5 5 4 5 6 6 7 8 9 10 11 11 12 12 12 12 13 13
32 34 34 32 30 27 22 14 8 3 7 14 15 16 15 11 7 7 6 5 5 5 5 5 5 4 4 4 4 4 4 3 2 2 3 4 5 6 7 8 9 10 11 11 11 12 13 13 14
30 35 35 32 31 29 24 16 11 6 9 14 16 17 16 10 6 6 5 4 4 5 5 4 4 3 3 3 3 2 2 1 1 1 2 3 4 5 6 7 9 10 10 11 12 12 13 14 15
27 32 34 33 34 32 25 18 12 8 10 15 18 18 15 10 6 5 5 4 4 5 5 4 3 3 4 4 4 4 3 3 3 3 3 3 4 4 5 7 8 9 10 11 11 12 13 14 15
24 29 31 34 36 32 27 21 16 12 12 17 20 19 16 11 5 5 6 5 5 5 5 5 5 6 6 6 6 5 4 4 4 4 4 4 4 4 5 6 7 8 9 10 11 13 14 15 16
24 26 26 30 34 32 29 25 19 16 16 20 21 20 16 13 7 6 6 6 6 6 6 6 6 7 6 6 5 4 4 4 4 4 4 4 4 4 5 6 7 9 10 11 12 13 14 16 17
22 19 18 25 32 34 31 27 23 21 20 20 21 20 18 13 9 8 8 7 6 6 6 6 5 5 5 4 4 4 4 4 4 4 4 4 4 5 5 6 9 10 11 12 13 15 16 17 18
19 14 19 27 33 36 35 31 27 24 23 21 20 21 20 16 11 10 10 8 7 7 6 5 4 4 4 3 4 4 4 4 3 4 4 4 5 5 6 8 10 11 13 14 14 15 17 18 19
18 16 20 27 35 38 37 34 30 27 24 23 22 22 21 18 14 13 12 10 8 7 6 5 4 3 3 2 3 3 3 3 3 3 4 5 6 7 8 9 11 13 14 14 14 15 16 17 19
19 18 20 26 32 37 37 35 32 30 27 26 24 22 20 18 15 14 14 12 9 8 7 5 5 4 2 1 2 2 2 2 2 3 4 4 6 8 8 9 10 12 14 15 15 15 17 18 18
21 21 22 26 29 33 34 34 34 32 30 29 26 23 21 19 16 15 15 14 12 10 8 6 5 4 3 1 1 2 2 3 4 5 5 6 6 8 9 10 11 13 14 14 15 16 17 18 19
26 25 24 24 25 27 29 31 31 32 32 30 27 25 23 20 18 18 19 16 14 12 10 7 6 6 5 4 4 4 4 5 7 7 8 8 9 10 11 11 11 13 13 14 15 16 17 18 19
28 26 24 23 21 22 25 25 29 33 33 31 28 26 25 21 19 20 21 19 15 14 12 10 9 9 7 7 7 6 7 8 9 10 11 12 12 12 13 13 14 15 15 15 15 16 17 18 18
28 25 22 20 18 19 19 19 26 32 35 33 29 26 26 23 21 20 20 19 17 16 14 11 11 11 11 10 10 9 10 11 13 14 15 16 17 17 16 15 16 17 17 17 18 18 17 18 19
27 24 21 19 17 16 16 16 23 29 32 32 30 28 26 24 22 20 19 19 18 18 15 13 14 13 14 14 15 15 16 17 18 18 19 20 21 21 20 19 20 20 20 21 21 21 20 20 20
27 24 22 22 20 18 17 16 20 25 27 28 28 28 26 24 22 22 21 20 19 18 15 15 16 16 18 19 21 22 22 23 23 24 24 25 24 25 24 24 23 24 23 23 23 23 23 22 23
29 25 23 22 20 19 19 20 22 24 25 25 26 26 26 24 24 24 24 23 20 18 17 17 19 20 21 23 26 26 27 28 28 29 28 29 29 29 29 28 27 27 26 26 26 26 26 26 26
30 27 25 23 22 21 21 22 25 27 26 25 25 25 25 25 25 26 25 23 22 21 21 20 21 23 26 27 29 30 31 32 32 33 33 32 32 32 32 32 32 30 29 29 29 29 30 29 29
30 28 27 24 23 22 23 24 25 26 27 27 26 26 26 26 27 27 27 26 24 24 25 25 27 28 30 31 33 34 34 35 35 36 35 34 35 35 35 35 35 33 32 31 31 31 32 32 32
30 29 29 27 26 25 26 27 26 27 29 29 29 28 28 28 29 29 30 30 29 29 29 30 31 33 34 35 37 37 37 37 37 37 37 36 37 37 37 37 37 36 35 34 33 33 34 35 36
30 31 31 30 29 29 27 28 28 28 29 31 32 32 31 30 31 31 32 33 33 34 34 34 35 36 37 39 39 38 38 39 39 39 39 39 39 39 39 39 39 38 37 36 36 37 38 38 39
28 30 32 32 32 31 28 29 30 29 30 33 34 35 35 34 35 35 35 36 37 37 38 38 39 40 41 41 41 41 40 40 40 40 40 40 40 40 40 41 40 39 38 39 39 40 41 42 44
26 27 31 34 34 32 31 32 31 29 30 32 35 37 38 37 37 37 37 38 39 40 41 43 44 44 44 44 44 43 42 41 41 41 41 41 40 40 41 41 41 40 40 41 42 44 45 46 48
24 26 27 30 33 32 35 36 35 33 33 34 35 37 39 39 38 39 40 41 42 43 45 45 46 46 46 45 44 44 43 42 42 42 42 42 42 43 43 43 43 43 44 45 46 48 50 51 52
20 23 26 28 29 31 33 36 37 34 33 34 35 37 39 40 40 40 41 42 43 45 46 46 46 46 45 44 43 43 43 42 42 43 44 45 45 46 46 47 48 47 49 51 52 53 54 54 55
19 22 24 26 28 29 32 33 34 32 30 30 31 34 37 39 41 42 43 43 45 46 47 47 46 46 45 43 43 43 43 44 44 46 47 48 48 49 50 51 53 54 55 56 57 57 57 58 59
21 24 25 27 27 29 32 36 36 34 31 30 29 31 34 38 40 42 44 44 45 45 46 46 45 44 44 43 43 44 45 46 47 49 50 51 52 54 56 57 58 59 59 60 60 61 61 61 62
Wind_Direction
211 208 201 193 188 188 203 215 137 346 320 315 311 311 311 306 302 296 286 276 273 269 263 253 242 238 236 236 240 246 251 255 259 264 270 275 278 280 281 282 283 283 283 284 285 285 285 283 282
213 211 205 198 194 193 206 208 138 347 312 300 296 301 304 301 295 288 276 270 264 259 253 242 234 231 231 232 236 242 248 250 255 262 269 275 279 281 282 284 285 285 285 285 286 287 286 286 285
214 214 209 202 197 199 207 208 177 113 303 298 301 303 307 299 288 280 271 262 251 246 239 232 231 228 225 226 231 235 239 244 251 261 269 275 279 281 283 284 285 286 286 286 287 287 287 287 287
216 215 213 204 198 201 205 206 177 152 282 292 300 303 303 297 285 277 265 248 234 228 225 222 222 220 216 217 221 226 231 235 243 255 268 277 281 283 285 286 287 287 288 289 289 289 289 289 289
220 218 215 206 197 200 204 204 193 200 275 286 294 298 298 295 285 272 258 237 221 213 210 207 205 201 198 201 206 211 216 219 229 254 280 291 292 291 291 291 291 292 294 295 296 295 293 291 289
226 223 218 207 198 199 202 203 197 216 266 278 285 290 289 282 280 264 248 222 207 200 196 190 185 176 173 170 170 173 162 145 120 21 342 326 313 305 304 304 305 305 305 305 305 302 298 294 290
232 229 221 207 199 198 197 201 196 214 254 273 277 281 280 274 272 252 237 210 197 181 169 160 152 140 133 130 121 109 102 89 67 41 17 355 335 324 323 323 322 321 319 315 311 308 302 297 293
238 234 223 208 199 195 195 200 200 216 243 264 271 274 274 271 256 238 224 206 195 175 157 145 134 127 123 116 106 97 89 77 58 39 22 8 357 349 344 338 332 328 324 319 315 311 306 301 297
243 238 227 210 200 193 196 200 202 213 238 256 266 269 266 268 247 228 215 198 188 170 154 143 132 123 119 109 99 92 85 73 55 40 27 12 359 351 345 340 332 326 321 317 315 313 308 303 298
247 246 225 206 199 195 199 202 205 216 231 246 257 261 257 260 239 218 207 197 186 171 157 151 140 129 119 103 90 83 73 65 55 43 31 13 357 347 343 340 334 326 322 319 315 312 307 302 298
244 236 209 199 195 195 198 200 206 217 229 241 250 254 253 251 243 221 212 204 193 182 166 159 153 139 125 106 89 78 65 60 51 39 27 14 359 345 343 340 340 335 328 323 320 315 310 302 296
235 221 207 196 195 196 198 201 205 214 224 233 240 245 246 246 243 226 215 211 208 198 184 171 171 158 141 115 95 80 65 58 54 36 20 12 6 357 351 349 343 337 332 328 327 323 319 310 299
225 215 205 198 198 199 201 203 207 213 220 227 232 238 241 240 242 234 220 213 211 209 202 197 191 187 176 137 86 68 38 14 12 8 2 356 354 352 352 348 345 340 335 332 328 327 324 318 308
217 213 206 202 202 203 205 206 210 212 218 226 230 234 238 239 235 233 224 218 212 212 216 216 219 228 236 267 319 341 333 332 333 335 339 343 342 340 338 335 337 338 337 336 332 329 326 321 314
216 215 213 210 207 207 210 211 214 214 219 225 230 234 240 242 238 235 227 221 215 211 218 224 239 255 266 278 289 300 308 315 317 316 318 323 324 330 329 328 333 336 333 329 325 322 320 320 317
219 218 217 217 215 214 216 213 214 215 219 224 232 235 242 244 245 233 221 220 217 215 216 225 240 250 260 270 276 284 290 294 297 299 303 308 311 316 320 324 326 328 324 321 319 317 315 316 315
223 222 220 217 215 215 219 211 209 212 216 220 230 237 243 247 251 238 231 232 226 221 220 226 242 257 265 269 275 284 287 288 290 292 294 297 301 305 312 318 320 321 318 315 315 313 313 313 312
225 224 219 210 202 207 206 200 201 205 210 215 224 234 242 248 251 248 246 245 242 231 225 234 247 261 269 279 286 288 289 291 292 293 292 293 297 299 303 309 310 311 312 310 309 308 307 308 308
222 219 213 204 196 197 191 189 187 193 199 208 219 230 241 249 256 255 256 259 249 245 247 247 257 263 271 283 288 287 289 292 293 294 294 292 294 295 296 300 301 302 304 304 302 301 301 301 301
215 211 203 198 200 199 188 181 181 188 195 207 219 232 243 250 254 262 268 267 265 262 263 272 268 271 277 284 289 287 290 294 294 293 292 291 291 291 290 292 293 295 296 298 296 295 295 294 295
212 206 196 193 200 200 191 186 188 195 203 214 225 234 241 250 257 264 268 268 270 272 273 279 280 278 280 283 286 287 289 290 291 289 287 287 288 288 289 289 290 290 290 292 292 292 292 291 292
210 205 197 196 199 196 196 193 195 204 213 219 227 236 241 249 258 264 267 270 274 278 280 281 281 281 281 281 284 286 285 285 286 286 285 284 285 286 287 287 288 288 289 290 291 291 290 290 290
205 204 201 201 203 201 202 201 201 212 221 228 232 238 243 249 256 263 269 275 276 279 280 280 283 283 279 282 283 284 284 284 284 284 284 285 285 285 284 285 288 289 288 288 289 289 289 289 290
203 205 203 205 208 205 206 209 209 216 223 231 236 241 246 251 257 262 268 272 275 276 278 279 282 283 284 284 285 286 284 283 283 283 283 284 284 285 283 285 288 287 287 287 288 289 289 289 289
205 208 207 210 213 210 211 217 217 219 226 231 235 240 245 250 255 261 265 268 270 273 275 278 280 283 284 284 284 284 283 281 280 280 281 282 283 284 284 287 287 287 287 288 289 290 290 289 289
208 212 214 216 219 218 217 225 227 226 229 234 237 241 244 248 252 257 261 265 268 271 273 275 279 280 282 282 282 281 282 281 279 279 281 282 284 284 286 287 289 290 289 288 289 289 289 288 288
208 216 219 220 223 224 224 230 234 235 237 239 240 242 244 247 250 254 258 262 265 268 271 274 276 278 280 280 280 280 280 279 279 281 282 283 284 285 286 287 288 289 289 288 288 288 288 288 288
208 213 217 220 221 222 223 230 235 236 239 242 243 244 245 247 250 253 257 260 264 267 271 274 275 277 278 278 278 278 278 279 279 280 281 282 284 285 286 287 288 289 289 288 288 288 288 288 288
206 212 218 223 223 223 223 228 233 236 238 242 246 246 245 247 250 254 257 259 262 265 268 270 272 273 274 275 275 276 277 278 279 280 281 282 284 285 286 287 288 288 288 288 288 288 288 288 288
208 215 219 222 223 226 228 232 235 241 246 249 251 252 252 251 253 254 256 258 260 262 264 266 268 269 270 271 273 275 276 278 279 280 281 282 284 285 286 287 287 287 287 288 288 288 288 288 288
Height
5893 5895 5899 5902 5903 5903 5902 5902 5901 5900 5900 5900 5901 5903 5903 5904 5905 5907 5904 5902 5903 5903 5903 5903 5903 5904 5905 5905 5906 5907 5907 5907 5908 5908 5908 5908 5908 5908 5907 5907 5906 5906 5905 5904 5904 5903 5903 5902 5901
5889 5892 5896 5898 5900 5900 5900 5900 5900 5900 5900 5899 5899 5902 5903 5903 5902 5902 5901 5901 5901 5901 5902 5902 5902 5903 5904 5904 5905 5906 5906 5907 5907 5907 5907 5907 5907 5907 5906 5906 5905 5905 5904 5903 5903 5902 5901 5901 5900
5884 5887 5891 5894 5896 5898 5899 5899 5898 5898 5899 5898 5898 5900 5901 5901 5901 5899 5899 5899 5900 5900 5901 5901 5902 5902 5903 5904 5905 5905 5906 5906 5906 5906 5906 5906 5906 5906 5905 5905 5904 5904 5903 5903 5902 5901 5900 5900 5899
5879 5882 5886 5890 5893 5895 5897 5898 5897 5896 5897 5898 5898 5898 5899 5900 5899 5898 5897 5898 5898 5899 5900 5901 5901 5902 5903 5903 5904 5905 5905 5905 5905 5905 5905 5905 5905 5905 5905 5904 5904 5903 5903 5902 5901 5900 5899 5898 5897
5873 5876 5880 5884 5889 5892 5895 5895 5895 5894 5895 5896 5897 5896 5897 5898 5898 5896 5896 5897 5898 5898 5899 5900 5901 5902 5902 5903 5904 5904 5905 5905 5905 5905 5905 5905 5905 5904 5904 5903 5903 5902 5902 5901 5900 5899 5898 5897 5895
5869 5871 5875 5880 5886 5889 5891 5893 5892 5892 5892 5894 5896 5896 5896 5897 5897 5895 5895 5896 5897 5898 5899 5900 5901 5901 5902 5903 5903 5904 5904 5904 5905 5905 5904 5904 5904 5904 5903 5903 5902 5901 5900 5900 5899 5898 5897 5895 5893
5864 5865 5869 5876 5881 5885 5889 5890 5890 5890 5890 5891 5894 5895 5895 5896 5897 5894 5894 5896 5897 5898 5899 5900 5901 5901 5902 5903 5903 5904 5904 5904 5904 5904 5904 5904 5903 5903 5902 5902 5901 5900 5899 5898 5897 5896 5894 5893 5891
5858 5861 5864 5870 5876 5881 5886 5886 5887 5887 5888 5889 5891 5893 5893 5894 5896 5894 5894 5895 5897 5897 5899 5900 5900 5901 5902 5903 5903 5903 5904 5904 5904 5904 5904 5903 5903 5902 5901 5901 5900 5898 5897 5896 5895 5893 5892 5890 5888
5853 5856 5860 5866 5872 5879 5882 5883 5883 5884 5885 5886 5889 5891 5892 5892 5894 5895 5895 5895 5897 5897 5898 5899 5900 5901 5902 5902 5903 5903 5903 5903 5903 5903 5903 5902 5902 5901 5900 5899 5898 5896 5895 5894 5892 5891 5889 5887 5885
5850 5853 5858 5863 5869 5874 5876 5879 5880 5880 5881 5883 5886 5889 5890 5891 5893 5894 5894 5895 5896 5897 5898 5899 5900 5901 5901 5902 5902 5902 5903 5903 5903 5902 5902 5901 5900 5899 5899 5898 5896 5894 5893 5891 5889 5887 5886 5884 5882
5847 5850 5853 5856 5862 5867 5870 5873 5874 5876 5877 5881 5884 5886 5887 5889 5891 5893 5893 5894 5896 5896 5897 5898 5899 5900 5900 5901 5901 5901 5901 5902 5901 5901 5900 5899 5899 5898 5897 5896 5894 5892 5890 5888 5886 5884 5882 5880 5878
5845 5846 5848 5852 5856 5860 5864 5868 5869 5871 5874 5877 5880 5883 5885 5886 5888 5890 5891 5893 5894 5895 5896 5896 5898 5898 5899 5899 5900 5900 5900 5900 5900 5899 5899 5898 5897 5896 5894 5893 5892 5890 5887 5885 5883 5881 5878 5876 5874
5841 5843 5845 5848 5851 5855 5859 5862 5865 5867 5870 5872 5876 5879 5882 5884 5886 5888 5890 5891 5892 5893 5894 5895 5896 5897 5897 5898 5898 5898 5898 5898 5898 5898 5897 5896 5895 5894 5892 5891 5889 5887 5885 5882 5880 5877 5875 5873 5870
5837 5839 5842 5844 5847 5851 5855 5858 5861 5864 5866 5869 5872 5875 5878 5880 5881 5884 5887 5888 5889 5891 5892 5893 5894 5894 5895 5896 5896 5896 5896 5896 5895 5895 5894 5894 5893 5891 5890 5888 5886 5884 5882 5879 5876 5874 5872 5869 5867
5832 5835 5839 5841 5844 5848 5851 5855 5858 5861 5863 5865 5869 5872 5874 5875 5877 5880 5883 5885 5887 5888 5889 5890 5892 5892 5893 5893 5894 5894 5893 5893 5892 5891 5891 5890 5889 5888 5886 5885 5883 5881 5879 5876 5874 5872 5869 5867 5864
5828 5832 5836 5840 5842 5845 5849 5852 5856 5858 5859 5862 5865 5868 5870 5871 5873 5875 5878 5881 5883 5885 5885 5887 5889 5890 5890 5891 5891 5891 5890 5890 5889 5888 5887 5886 5885 5883 5882 5880 5879 5877 5875 5873 5871 5869 5866 5864 5861
5825 5830 5834 5837 5840 5841 5844 5847 5851 5853 5856 5859 5861 5864 5866 5868 5869 5871 5874 5876 5878 5880 5881 5884 5886 5886 5887 5887 5887 5887 5887 5887 5886 5884 5883 5881 5880 5878 5877 5875 5873 5872 5870 5868 5866 5864 5862 5860 5857
5822 5826 5830 5833 5835 5837 5840 5843 5845 5848 5851 5856 5858 5860 5861 5863 5866 5868 5870 5872 5874 5875 5876 5879 5881 5881 5880 5880 5881 5881 5881 5881 5880 5879 5878 5876 5874 5873 5871 5870 5868 5867 5865 5863 5861 5859 5857 5855 5853
5817 5822 5825 5828 5829 5832 5835 5838 5841 5844 5848 5852 5854 5855 5856 5860 5862 5864 5867 5868 5870 5872 5873 5874 5875 5874 5873 5873 5873 5874 5874 5874 5873 5872 5871 5869 5868 5866 5865 5864 5863 5861 5860 5858 5856 5854 5852 5850 5848
5812 5817 5822 5825 5826 5829 5832 5835 5839 5842 5844 5847 5849 5852 5853 5856 5859 5861 5863 5864 5866 5868 5869 5870 5870 5870 5869 5869 5868 5867 5867 5866 5865 5865 5863 5862 5860 5859 5858 5857 5856 5855 5853 5852 5850 5849 5847 5844 5842
5808 5814 5818 5821 5823 5826 5830 5833 5836 5839 5840 5843 5845 5847 5849 5851 5854 5856 5858 5860 5862 5863 5864 5865 5865 5865 5864 5864 5863 5861 5860 5859 5858 5857 5856 5854 5853 5851 5850 5849 5848 5847 5846 5844 5843 5841 5840 5837 5835
5804 5810 5814 5816 5819 5822 5827 5830 5834 5835 5838 5839 5841 5843 5845 5847 5849 5852 5854 5855 5856 5857 5859 5859 5860 5860 5859 5858 5857 5855 5854 5853 5851 5849 5848 5846 5845 5844 5842 5841 5840 5839 5837 5836 5835 5833 5831 5829 5827
5800 5805 5810 5813 5815 5819 5822 5826 5831 5832 5834 5836 5838 5840 5841 5843 5845 5847 5848 5849 5850 5852 5853 5854 5854 5854 5852 5851 5850 5848 5846 5845 5843 5841 5840 5838 5837 5835 5834 5832 5831 5830 5829 5827 5826 5824 5823 5820 5818
5795 5801 5805 5809 5812 5816 5819 5822 5826 5828 5830 5832 5834 5835 5837 5838 5839 5840 5841 5843 5844 5845 5846 5847 5847 5846 5844 5843 5842 5840 5839 5838 5836 5834 5832 5830 5829 5827 5825 5823 5822 5821 5819 5818 5816 5815 5813 5811 5808
5791 5797 5802 5806 5808 5813 5816 5818 5821 5823 5825 5826 5828 5830 5831 5833 5834 5835 5835 5836 5837 5837 5838 5838 5838 5837 5836 5835 5834 5832 5831 5829 5827 5825 5823 5822 5820 5818 5817 5815 5812 5811 5810 5808 5806 5804 5802 5799 5797
5788 5793 5798 5802 5805 5809 5812 5813 5816 5819 5820 5821 5822 5824 5825 5826 5827 5828 5829 5830 5830 5830 5830 5830 5829 5828 5827 5826 5825 5823 5822 5820 5818 5817 5814 5813 5810 5808 5807 5805 5803 5801 5799 5797 5795 5793 5790 5787 5784
5784 5789 5793 5796 5799 5804 5807 5808 5810 5812 5814 5815 5816 5817 5818 5819 5820 5820 5820 5821 5821 5821 5821 5821 5820 5819 5818 5817 5815 5814 5813 5811 5809 5807 5805 5803 5801 5799 5797 5795 5793 5791 5789 5786 5783 5781 5778 5774 5771
5781 5784 5788 5791 5794 5797 5801 5802 5803 5806 5807 5808 5808 5809 5810 5810 5811 5812 5812 5812 5812 5812 5811 5811 5811 5810 5808 5807 5806 5805 5803 5802 5800 5798 5796 5793 5791 5789 5787 5784 5782 5780 5777 5774 5771 5768 5764 5761 5757
5777 5780 5782 5786 5789 5792 5795 5799 5797 5798 5799 5799 5799 5799 5800 5801 5802 5802 5803 5803 5804 5803 5802 5802 5801 5800 5799 5798 5797 5795 5794 5792 5790 5788 5786 5783 5780 5778 5775 5773 5770 5767 5764 5760 5757 5754 5750 5746 5742
5773 5775 5778 5781 5784 5786 5789 5792 5790 5791 5791 5791 5791 5791 5791 5792 5792 5793 5793 5794 5794 5793 5793 5792 5791 5790 5789 5788 5787 5786 5784 5782 5779 5777 5774 5772 5769 5766 5763 5760 5757 5753 5749 5746 5742 5739 5735 5731 5727